TimeEDT,TemperatureF,Dew PointF,Humidity,Sea Level PressureIn,VisibilityMPH,Wind Direction,Wind SpeedMPH,Gust SpeedMPH,PrecipitationIn,Events,Conditions,WindDirDegrees,DateUTC
12:15 AM,50.0,46.4,87,29.92,10.0,Calm,Calm,-,N/A,,Scattered Clouds,0,2012-10-02 04:15:00
12:35 AM,50.0,46.4,87,29.91,10.0,East,4.6,-,N/A,,Overcast,100,2012-10-02 04:35:00
12:55 AM,50.0,46.4,87,29.91,10.0,SE,6.9,-,N/A,,Overcast,130,2012-10-02 04:55:00
1:15 AM,51.8,46.4,82,29.91,10.0,SSE,4.6,-,N/A,,Overcast,150,2012-10-02 05:15:00
1:35 AM,51.8,44.6,76,29.91,10.0,SE,4.6,-,N/A,,Overcast,140,2012-10-02 05:35:00
1:55 AM,51.8,44.6,76,29.91,10.0,SSE,5.8,-,N/A,,Overcast,160,2012-10-02 05:55:00
2:15 AM,51.8,44.6,76,29.90,10.0,SE,6.9,-,N/A,,Overcast,140,2012-10-02 06:15:00
3:15 AM,51.8,46.4,82,29.89,10.0,SSE,5.8,-,N/A,,Overcast,150,2012-10-02 07:15:00
3:35 AM,51.8,46.4,82,29.89,10.0,South,6.9,-,N/A,,Overcast,170,2012-10-02 07:35:00
3:55 AM,51.8,46.4,82,29.88,10.0,South,4.6,-,N/A,,Drizzle,170,2012-10-02 07:55:00
4:15 AM,51.8,48.2,88,29.89,10.0,SSE,4.6,-,N/A,Rain,Rain,150,2012-10-02 08:15:00
4:35 AM,51.8,48.2,88,29.88,10.0,SSE,5.8,-,N/A,Rain,Rain,150,2012-10-02 08:35:00
4:55 AM,51.8,50.0,94,29.89,10.0,SE,5.8,-,N/A,,Overcast,140,2012-10-02 08:55:00
5:15 AM,51.8,48.2,88,29.88,10.0,SE,4.6,-,N/A,,Overcast,130,2012-10-02 09:15:00
5:35 AM,51.8,50.0,94,29.89,10.0,SE,4.6,-,N/A,,Overcast,140,2012-10-02 09:35:00
5:55 AM,51.8,50.0,94,29.89,10.0,SSE,3.5,-,N/A,,Overcast,150,2012-10-02 09:55:00
6:35 AM,51.8,50.0,94,29.88,10.0,SSE,4.6,-,N/A,,Overcast,150,2012-10-02 10:35:00
6:55 AM,51.8,50.0,94,29.89,10.0,Calm,Calm,-,N/A,,Overcast,0,2012-10-02 10:55:00
7:15 AM,51.8,50.0,94,29.89,10.0,South,5.8,-,N/A,,Overcast,170,2012-10-02 11:15:00
7:35 AM,51.8,51.8,100,29.89,10.0,South,5.8,-,N/A,Rain,Light Rain,180,2012-10-02 11:35:00
7:55 AM,51.8,51.8,100,29.90,5.0,South,5.8,-,N/A,Rain,Rain,180,2012-10-02 11:55:00
8:15 AM,51.8,51.8,100,29.91,3.0,SSE,4.6,-,N/A,Rain,Heavy Rain,160,2012-10-02 12:15:00
8:35 AM,51.8,51.8,100,29.92,1.8,South,5.8,-,N/A,Rain,Rain,170,2012-10-02 12:35:00
8:55 AM,-9999,-9999,N/A,-9999,-9999.0,North,-9999.0,-,N/A,,Unknown,0,2012-10-02 12:55:00
9:15 AM,53.6,53.6,100,29.93,5.0,South,8.1,-,N/A,,Overcast,180,2012-10-02 13:15:00
9:35 AM,53.6,53.6,100,29.92,5.0,South,5.8,-,N/A,,Overcast,190,2012-10-02 13:35:00
9:55 AM,55.4,55.4,100,29.93,5.0,South,6.9,-,N/A,,Overcast,190,2012-10-02 13:55:00
10:15 AM,53.6,53.6,100,29.93,4.0,South,5.8,-,N/A,,Overcast,190,2012-10-02 14:15:00
10:35 AM,55.4,55.4,100,29.93,5.0,South,5.8,-,N/A,,Overcast,170,2012-10-02 14:35:00
10:55 AM,55.4,55.4,100,29.93,5.0,South,4.6,-,N/A,,Overcast,180,2012-10-02 14:55:00
11:15 AM,55.4,55.4,100,29.93,7.0,South,8.1,-,N/A,,Overcast,190,2012-10-02 15:15:00
11:35 AM,55.4,55.4,100,29.93,7.0,South,6.9,-,N/A,,Overcast,180,2012-10-02 15:35:00
11:55 AM,57.2,55.4,94,29.92,7.0,South,5.8,-,N/A,,Overcast,180,2012-10-02 15:55:00
12:15 PM,57.2,57.2,100,29.93,5.0,SSW,4.6,-,N/A,,Overcast,200,2012-10-02 16:15:00
12:35 PM,59.0,59.0,100,29.93,7.0,South,5.8,-,N/A,,Overcast,190,2012-10-02 16:35:00
12:55 PM,60.8,59.0,94,29.93,10.0,SSW,4.6,-,N/A,,Overcast,200,2012-10-02 16:55:00
1:15 PM,60.8,59.0,94,29.93,10.0,SSW,4.6,-,N/A,,Overcast,200,2012-10-02 17:15:00
1:35 PM,60.8,59.0,94,29.93,10.0,South,5.8,-,N/A,,Overcast,190,2012-10-02 17:35:00
1:55 PM,60.8,59.0,94,29.93,10.0,South,6.9,-,N/A,,Overcast,190,2012-10-02 17:55:00
2:15 PM,60.8,59.0,94,29.93,10.0,South,5.8,-,N/A,,Overcast,170,2012-10-02 18:15:00
2:35 PM,60.8,59.0,94,29.92,10.0,South,5.8,-,N/A,,Overcast,190,2012-10-02 18:35:00
2:55 PM,60.8,59.0,94,29.92,10.0,South,4.6,-,N/A,,Overcast,170,2012-10-02 18:55:00
3:15 PM,62.6,59.0,88,29.92,10.0,Calm,Calm,-,N/A,,Overcast,0,2012-10-02 19:15:00
3:35 PM,62.6,59.0,88,29.92,10.0,South,3.5,-,N/A,,Overcast,170,2012-10-02 19:35:00
3:55 PM,62.6,59.0,88,29.92,10.0,Calm,Calm,-,N/A,,Overcast,0,2012-10-02 19:55:00
4:15 PM,62.6,59.0,88,29.92,10.0,South,4.6,-,N/A,,Overcast,180,2012-10-02 20:15:00
4:35 PM,62.6,59.0,88,29.92,10.0,South,3.5,-,N/A,,Overcast,180,2012-10-02 20:35:00
4:55 PM,62.6,59.0,88,29.92,10.0,Calm,Calm,-,N/A,,Overcast,0,2012-10-02 20:55:00
5:15 PM,62.6,59.0,88,29.92,10.0,Calm,Calm,-,N/A,,Overcast,0,2012-10-02 21:15:00
5:35 PM,62.6,59.0,88,29.93,10.0,Calm,Calm,-,N/A,,Overcast,0,2012-10-02 21:35:00
6:15 PM,62.6,59.0,88,29.94,10.0,ESE,3.5,-,N/A,,Overcast,120,2012-10-02 22:15:00
6:35 PM,60.8,60.8,100,29.94,7.0,SSE,3.5,-,N/A,,Drizzle,150,2012-10-02 22:35:00
6:55 PM,60.8,60.8,100,29.94,5.0,SE,3.5,-,N/A,,Heavy Drizzle,140,2012-10-02 22:55:00
7:15 PM,60.8,60.8,100,29.95,7.0,Calm,Calm,-,N/A,,Light Drizzle,0,2012-10-02 23:15:00
7:35 PM,60.8,60.8,100,29.95,10.0,Calm,Calm,-,N/A,,Overcast,0,2012-10-02 23:35:00
7:55 PM,60.8,59.0,94,29.96,10.0,SE,4.6,-,N/A,,Overcast,140,2012-10-02 23:55:00
8:15 PM,60.8,59.0,94,29.96,10.0,SSE,3.5,-,N/A,,Overcast,150,2012-10-03 00:15:00
8:35 PM,59.0,59.0,100,29.96,10.0,SE,3.5,-,N/A,,Overcast,130,2012-10-03 00:35:00
8:55 PM,59.0,59.0,100,29.97,7.0,Calm,Calm,-,N/A,Rain,Rain,0,2012-10-03 00:55:00
9:15 PM,59.0,59.0,100,29.97,7.0,Calm,Calm,-,N/A,,Drizzle,0,2012-10-03 01:15:00
9:35 PM,59.0,59.0,100,29.97,7.0,ESE,3.5,-,N/A,,Overcast,110,2012-10-03 01:35:00
9:55 PM,59.0,59.0,100,29.97,5.0,East,3.5,-,N/A,,Overcast,100,2012-10-03 01:55:00
10:15 PM,59.0,59.0,100,29.97,7.0,Calm,Calm,-,N/A,,Overcast,0,2012-10-03 02:15:00
10:35 PM,59.0,59.0,100,29.98,10.0,SSE,4.6,-,N/A,,Overcast,160,2012-10-03 02:35:00
10:55 PM,59.0,59.0,100,29.97,10.0,SE,3.5,-,N/A,,Overcast,140,2012-10-03 02:55:00
11:15 PM,59.0,59.0,100,29.97,10.0,SSE,5.8,-,N/A,,Overcast,150,2012-10-03 03:15:00
11:35 PM,59.0,59.0,100,29.97,10.0,SE,3.5,-,N/A,,Overcast,130,2012-10-03 03:35:00
11:55 PM,59.0,59.0,100,29.97,7.0,Calm,Calm,-,N/A,,Overcast,0,2012-10-03 03:55:00